Simultaneous Nadir Overpasses (SNOs) Predictions

Prediction of SNOs between GOES-16 and FY3D Satellite Orbit:

Table of predicted SNOs for the next 14.0 days since TLE Epoch: 11/23/2024
Index Date Time (GOES-16) GOES-16 Lat,Lon FY3D Lat,Lon Distance(km) Time Diff (sec)
1 11/23/2024 19:49:16 0.01, -75.21 -0.22, -76.30 123.88 80
2 11/24/2024 19:33:13 0.01, -75.22 0.77, -71.76 394.67 80
3 11/26/2024 07:55:06 -0.01, -75.23 0.38, -77.01 202.37 80
4 11/27/2024 07:33:43 -0.01, -75.24 -0.62, -72.47 316.37 80
5 11/28/2024 19:55:42 0.01, -75.27 -0.56, -77.74 282.48 80
6 11/29/2024 19:39:40 0.00, -75.28 0.45, -73.20 236.69 80
7 12/01/2024 08:01:31 -0.00, -75.30 0.74, -78.45 359.23 80
8 12/02/2024 07:40:10 0.00, -75.32 -0.34, -73.92 159.80 80
9 12/03/2024 20:02:08 -0.00, -75.34 -0.89, -79.19 439.06 80
10 12/04/2024 19:46:06 -0.00, -75.36 0.13, -74.65 80.38 80
